Powrót do katalogu

ONEWEB-0455

AktywnyŁącznośćPO
NORAD 51645·PAYLOAD·🇬🇧 United Kingdom

Wystrzelony Feb 10, 2022 z Guiana Space Centre

Loading…

Następne Przeloty (najbliższe 24 godziny)

TLE

ŚwieżeSource: Space-Track

Epoka: Sep 14, 2026, 05:49 UTC

1 51645U 22012Z   26257.24290277  .00000181  00000-0  71405-4 0  9994
2 51645  87.5239 247.2004 0015694 209.2948 150.7365 14.23671851238812

Śledź ONEWEB-0455 w czasie rzeczywistym z AllMySat

Download on the App Store